TimeEDT,TemperatureF,Dew PointF,Humidity,Sea Level PressureIn,VisibilityMPH,Wind Direction,Wind SpeedMPH,Gust SpeedMPH,PrecipitationIn,Events,Conditions,WindDirDegrees,DateUTC
1:55 AM,41.0,37.4,87,30.13,10.0,Calm,Calm,-,N/A,,Overcast,0,2012-10-07 05:55:00
2:55 AM,41.0,35.6,81,30.13,10.0,Calm,Calm,-,N/A,,Overcast,0,2012-10-07 06:55:00
3:15 AM,41.0,35.6,81,30.12,10.0,Calm,Calm,-,N/A,,Overcast,0,2012-10-07 07:15:00
6:55 AM,41.0,35.6,81,30.10,10.0,Calm,Calm,-,N/A,,Overcast,0,2012-10-07 10:55:00
7:15 AM,41.0,35.6,81,30.10,10.0,Calm,Calm,-,N/A,,Overcast,0,2012-10-07 11:15:00
11:35 AM,42.8,35.6,76,30.14,10.0,WSW,5.8,-,N/A,,Overcast,250,2012-10-07 15:35:00
11:55 AM,44.6,35.6,71,30.13,10.0,West,8.1,-,N/A,,Light Drizzle,270,2012-10-07 15:55:00
12:15 PM,44.6,35.6,71,30.13,10.0,West,5.8,-,N/A,,Light Drizzle,260,2012-10-07 16:15:00
12:35 PM,46.4,35.6,66,30.13,10.0,West,9.2,-,N/A,,Overcast,280,2012-10-07 16:35:00
12:55 PM,46.4,35.6,66,30.13,10.0,West,9.2,-,N/A,,Overcast,280,2012-10-07 16:55:00
1:15 PM,48.2,32.0,54,30.13,10.0,WSW,8.1,-,N/A,,Overcast,240,2012-10-07 17:15:00
1:35 PM,50.0,30.2,47,30.13,10.0,West,9.2,18.4,N/A,,Mostly Cloudy,260,2012-10-07 17:35:00
1:55 PM,48.2,30.2,50,30.12,10.0,WSW,8.1,16.1,N/A,,Mostly Cloudy,250,2012-10-07 17:55:00
2:35 PM,50.0,30.2,47,30.10,10.0,SW,5.8,-,N/A,,Mostly Cloudy,230,2012-10-07 18:35:00
2:55 PM,50.0,32.0,50,30.10,10.0,SW,9.2,-,N/A,,Overcast,230,2012-10-07 18:55:00
3:15 PM,50.0,32.0,50,30.10,10.0,West,10.4,-,N/A,,Overcast,270,2012-10-07 19:15:00
3:35 PM,50.0,32.0,50,30.10,10.0,West,11.5,-,N/A,,Overcast,270,2012-10-07 19:35:00
3:55 PM,50.0,32.0,50,30.10,10.0,WSW,8.1,-,N/A,,Overcast,250,2012-10-07 19:55:00
4:15 PM,48.2,32.0,54,30.10,10.0,West,6.9,-,N/A,,Overcast,260,2012-10-07 20:15:00
4:35 PM,46.4,33.8,62,30.10,10.0,West,12.7,18.4,N/A,,Overcast,270,2012-10-07 20:35:00
4:55 PM,46.4,33.8,62,30.10,10.0,WNW,13.8,18.4,N/A,,Overcast,290,2012-10-07 20:55:00
5:15 PM,46.4,35.6,66,30.11,10.0,WNW,11.5,16.1,N/A,,Overcast,300,2012-10-07 21:15:00
5:35 PM,46.4,33.8,62,30.11,10.0,WNW,11.5,16.1,N/A,,Overcast,300,2012-10-07 21:35:00
5:55 PM,46.4,33.8,62,30.12,10.0,WNW,8.1,-,N/A,,Overcast,290,2012-10-07 21:55:00
6:15 PM,44.6,33.8,66,30.13,10.0,WNW,8.1,16.1,N/A,,Overcast,290,2012-10-07 22:15:00
6:35 PM,44.6,35.6,71,30.13,10.0,West,9.2,-,N/A,,Overcast,280,2012-10-07 22:35:00
6:55 PM,44.6,35.6,71,30.14,10.0,West,5.8,-,N/A,,Overcast,280,2012-10-07 22:55:00
7:15 PM,42.8,35.6,76,30.15,10.0,West,8.1,-,N/A,,Overcast,280,2012-10-07 23:15:00
7:35 PM,42.8,35.6,76,30.15,10.0,West,4.6,-,N/A,,Overcast,280,2012-10-07 23:35:00
7:55 PM,42.8,35.6,76,30.15,10.0,West,3.5,-,N/A,,Overcast,270,2012-10-07 23:55:00
8:15 PM,41.0,35.6,81,30.15,10.0,Calm,Calm,-,N/A,,Mostly Cloudy,0,2012-10-08 00:15:00
8:35 PM,41.0,35.6,81,30.15,10.0,Calm,Calm,-,N/A,,Overcast,0,2012-10-08 00:35:00
8:55 PM,41.0,35.6,81,30.16,10.0,WSW,3.5,-,N/A,,Overcast,240,2012-10-08 00:55:00
9:15 PM,41.0,35.6,81,30.17,10.0,WSW,3.5,-,N/A,,Overcast,240,2012-10-08 01:15:00
9:35 PM,41.0,35.6,81,30.17,10.0,WSW,3.5,-,N/A,,Overcast,250,2012-10-08 01:35:00
9:55 PM,41.0,35.6,81,30.18,10.0,WSW,3.5,-,N/A,,Overcast,250,2012-10-08 01:55:00
10:15 PM,41.0,35.6,81,30.18,10.0,Calm,Calm,-,N/A,,Overcast,0,2012-10-08 02:15:00
10:35 PM,41.0,35.6,81,30.17,10.0,Calm,Calm,-,N/A,,Overcast,0,2012-10-08 02:35:00
10:55 PM,41.0,35.6,81,30.17,10.0,Calm,Calm,-,N/A,,Overcast,0,2012-10-08 02:55:00
11:15 PM,41.0,35.6,81,30.17,10.0,Calm,Calm,-,N/A,,Overcast,0,2012-10-08 03:15:00
11:35 PM,39.2,35.6,87,30.17,10.0,Calm,Calm,-,N/A,,Overcast,0,2012-10-08 03:35:00
11:55 PM,39.2,35.6,87,30.17,10.0,Calm,Calm,-,N/A,,Overcast,0,2012-10-08 03:55:00